"TOA5","AWS1","CR1000","7964","CR1000.Std.14","CPU:AWS1_114.CR1","64363","TBL110"
"TIMESTAMP","RECORD","Wind_spd_WVc(1)","Wind_spd_WVc(2)","Air_Temp_Avg","Humidity_Avg","SW_upper_Wm2_Avg","Rain_Tot","Press_Avg","Issui_Tot","Depth_cm","SR50A_Raw","Quality","Ground_Temp_Avg(1)","Ground_Temp_Avg(2)","SW_lower_Wm2_Avg","Albedo_Avg","SWC_per(1)","SWC_per(2)","Period(1)","Period(2)"
"TS","RN","","","","","","","","","","","","","","","","","","",""
"","","WVc","WVc","Avg","Avg","Avg","Tot","Avg","Tot","Smp","Smp","Smp","Avg","Avg","Avg","Avg","Smp","Smp","Smp","Smp"
"2015-12-29 00:00:00",215629,0.023,301.4,-5.1,91.9,0,0,866.1887,0,1.306,3.196,189,2.307,3.186,0.2426963,0,51.49,59.44,33.66,35.55
"2015-12-29 00:10:00",215630,0,0,-4.913,92.1,0,0,866.077,0,1.082,3.198,178,2.297,3.186,0.6332857,0,51.49,59.44,33.66,35.55
"2015-12-29 00:20:00",215631,0.117,309.4,-4.932,93.2,0,0,866.077,0,1.306,3.196,177,2.298,3.186,0.4929769,0,51.49,59.44,33.66,35.55
"2015-12-29 00:30:00",215632,0.081,325.4,-5.005,94.4,0,0,866.0706,0,1.901,3.19,241,2.305,3.186,0.2237357,0,51.49,59.44,33.66,35.55
"2015-12-29 00:40:00",215633,0.695,359.1,-4.949,93.8,0.04326266,0,865.9484,0,1.774,3.19,227,2.263,3.186,0.2237357,0,51.49,59.44,33.66,35.55
"2015-12-29 00:50:00",215634,0.37,159.2,-4.748,91.3,0,0,865.9526,0,2.071,3.187,256,2.253,3.188,0.3109547,0,51.49,59.44,33.66,35.55
"2015-12-29 01:00:00",215635,0.231,324.1,-4.73,92.1,0,0,866.0727,0,1.848,3.189,237,2.244,3.186,0.4209265,0,51.49,59.44,33.66,35.55
"2015-12-29 01:10:00",215636,0.373,314.5,-4.787,93.7,0,0,866.1381,0,1.578,3.193,214,2.246,3.186,0.2275278,0,51.49,59.44,33.66,35.55
"2015-12-29 01:20:00",215637,0.47,314.3,-4.893,95.5,0.003932969,0,866.1697,0,1.876,3.19,214,2.238,3.186,0.1099718,0.016,51.49,59.44,33.66,35.55
"2015-12-29 01:30:00",215638,1.124,299.9,-4.86,95.2,0,0,866.2055,0,1.898,3.189,196,2.24,3.186,0.2161514,0,51.49,59.44,33.66,35.55
"2015-12-29 01:40:00",215639,0.816,295.7,-4.774,93.5,0,0,866.1276,0,1.873,3.189,194,2.236,3.183,0.2237357,0,51.49,59.44,33.66,35.55
"2015-12-29 01:50:00",215640,0.457,301.4,-4.764,93.2,0,0,866.1507,0,1.85,3.19,195,2.203,3.186,0.1630616,0,51.44,59.44,33.65,35.55
"2015-12-29 02:00:00",215641,1.078,296,-4.845,93.5,0,0,866.0896,0,1.998,3.188,193,2.174,3.186,0.1137639,0,51.44,59.44,33.65,35.55
"2015-12-29 02:10:00",215642,0.826,298.2,-4.867,92.6,0,0,866.0727,0,2.074,3.188,173,2.183,3.186,0,0,51.49,59.44,33.66,35.55
"2015-12-29 02:20:00",215643,0.793,314.3,-4.922,91.9,0,0,866.1085,0,2.099,3.188,191,2.177,3.186,0,0,51.49,59.38,33.66,35.54
"2015-12-29 02:30:00",215644,1.26,291.4,-4.941,90.3,0,0,866.0727,0,2.173,3.187,179,2.182,3.182,0.06446622,0,51.49,59.38,33.66,35.54
"2015-12-29 02:40:00",215645,0.818,307.4,-4.92,88.4,0,0,866.0727,0,2.198,3.187,178,2.191,3.185,0.2275278,0,51.49,59.44,33.66,35.55
"2015-12-29 02:50:00",215646,0.955,321.2,-4.946,88.1,0,0,866.0727,0,1.901,3.19,185,2.192,3.196,0.2275278,0,51.49,59.44,33.66,35.55
"2015-12-29 03:00:00",215647,0.671,309.4,-4.983,89,0,0,866.0727,0,2.249,3.187,242,2.192,3.187,0.2275278,0,51.49,59.38,33.66,35.54
"2015-12-29 03:10:00",215648,1.143,323.8,-5.069,90.2,0,0,866.0664,0,1.779,3.192,192,2.192,3.177,0.04171343,0,51.49,59.38,33.66,35.54
"2015-12-29 03:20:00",215649,0.902,355.8,-5.002,89.8,0,0,866.0538,0,1.703,3.192,200,2.192,3.197,0.1820223,0,51.49,59.38,33.66,35.54
"2015-12-29 03:30:00",215650,0.515,351.3,-5.029,89.4,0,0,865.8598,0,1.802,3.191,202,2.192,3.202,0.09101113,0,51.44,59.38,33.65,35.
"2015-12-29 03:30:00",215650,0.515,351.3,-5.029,89.4,0,0,865.8598,0,1.802,3.191,202,2.192,3.202,0.09101113,0,51.44,59.38,33.65,35.54
"2015-12-29 03:40:00",215651,0.408,331.6,-4.975,88.2,0,0,865.8198,0,1.779,3.192,198,2.192,3.188,0.2237357,0,51.49,59.38,33.66,35.54
"2015-12-29 03:50:00",215652,0.615,349.1,-5.038,89.3,0,0,865.8472,0,2.15,3.188,243,2.192,3.133,0.1782301,0,51.49,59.38,33.66,35.54
"2015-12-29 04:00:00",215653,0.347,10.2,-5.128,90.3,0,0,865.8219,0,1.731,3.193,198,2.192,3.185,0.01137639,0,51.44,59.38,33.65,35.54
"2015-12-29 04:10:00",215654,0.291,295.4,-5.136,91.7,0,0,865.8198,0,1.581,3.194,195,2.192,3.172,0.1858144,0,51.49,59.38,33.66,35.54
"2015-12-29 04:20:00",215655,0.199,298.3,-5.1,92.8,0,0,865.8135,0,1.928,3.191,195,2.192,3.18,0.2275278,0,51.49,59.38,33.66,35.54
"2015-12-29 04:30:00",215656,0.289,264.4,-5.115,94,0,0,865.8661,0,1.829,3.192,227,2.192,3.174,0.2275278,0,51.44,59.38,33.65,35.54
"2015-12-29 04:40:00",215657,0.513,314.1,-5.262,95.6,0.09832422,0,866.0538,0,2.056,3.191,241,2.192,3.178,0.1327246,0.032,51.49,59.38,33.66,35.54
"2015-12-29 04:50:00",215658,0.259,316.4,-5.394,97.1,0.2359781,0,866.0558,0,1.19,3.2,202,2.192,3.198,0,0,51.49,59.38,33.66,35.54
"2015-12-29 05:00:00",215659,0.283,311,-5.448,97.3,0.2359781,0,866.0432,0,1.044,3.202,200,2.192,3.189,0,0,51.49,59.38,33.66,35.54
"2015-12-29 05:10:00",215660,0.286,332.3,-5.564,98.1,0.2359781,0,866.0685,0,0.97,3.203,206,2.192,3.189,0,0,51.44,59.38,33.65,35.54
"2015-12-29 05:20:00",215661,0.463,305.9,-5.553,97.7,0.1612517,0,866.1971,0,0.673,3.206,207,2.194,3.168,0,0,51.44,59.38,33.65,35.54
"2015-12-29 05:30:00",215662,0.773,302.8,-5.591,95.2,0.02359781,0,866.332,0,0.551,3.208,208,2.199,3.151,0,0,51.49,59.38,33.66,35.54
"2015-12-29 05:40:00",215663,0.604,302.3,-5.639,92.3,0,0,866.4247,0,0.479,3.209,197,2.199,3.162,0,0,51.49,59.38,33.66,35.54
"2015-12-29 05:50:00",215664,0.4,282.3,-5.794,91.8,0,0,866.5681,0,0.654,3.208,189,2.228,3.145,0,0,51.44,59.38,33.65,35.54
"2015-12-29 06:00:00",215665,0.464,309.6,-5.856,92.9,0,0,866.6229,0,1.027,3.205,205,2.237,3.139,0.08342686,0,51.44,59.38,33.65,35.54
"2015-12-29 06:10:00",215666,0.343,299,-5.989,95.6,0,0,866.7303,0,0.657,3.209,197,2.235,3.124,0,0,51.49,59.38,33.66,35.54
"2015-12-29 06:20:00",215667,0.219,305.3,-6.004,94.4,0,0,866.7936,0,0.855,3.207,197,2.252,3.136,0,0,51.44,59.38,33.65,35.54
"2015-12-29 06:30:00",215668,0.227,318,-6.076,94.3,0,0,866.8484,0,0.833,3.208,196,2.261,3.137,0.1516852,0,51.44,59.38,33.65,35.54
"2015-12-29 06:40:00",215669,0.465,301.8,-6.089,97.8,0,0,867.0423,0,1.525,3.201,202,2.272,3.13,0.8380607,0,51.44,59.38,33.65,35.54
"2015-12-29 06:50:00",215670,0.517,342,-6.085,99.6,0,0,867.1329,0,3.452,3.181,288,2.262,3.119,0.6825835,0,51.44,59.38,33.65,35.54
"2015-12-29 07:00:00",215671,0.196,2.158,-6.005,100,0.1927155,0,867.1371,0,1.793,3.197,246,2.258,3.128,1.039044,3.825,51.44,59.38,33.65,35.54
"2015-12-29 07:10:00",215672,0.047,205.9,-5.883,99.1,0.5191519,0,867.213,0,2.855,3.186,200,2.268,3.11,1.824015,4.125,51.44,59.38,33.65,35.54
"2015-12-29 07:20:00",215673,0.075,346.4,-5.918,98.2,1.415869,0,867.1856,0.5,3.178,3.183,192,2.271,3.113,3.591147,2.62,51.44,59.38,33.65,35.54
"2015-12-29 07:30:00",215674,0.31,309.6,-5.97,98.4,1.663646,0,867.3627,0,3.252,3.182,174,2.268,3.113,4.137214,2.489,51.44,59.32,33.65,35.52
"2015-12-29 07:40:00",215675,0.485,0.78,-6.084,97.8,3.909371,0,867.5714,0,3.379,3.182,178,2.25,3.125,8.97218,2.233,51.44,59.38,33.65,35.54
"2015-12-29 07:50:00",215676,0.522,258,-6.083,96.6,6.918092,0,867.6894,0,3.254,3.183,178,2.268,3.114,16.0938,2.334,51.44,59.38,33.65,35.54
"2015-12-29 08:00:00",215677,0.255,290.6,-6.043,96,9.946478,0,867.8475,0,3.226,3.182,178,2.251,3.117,24.73227,2.475,51.44,59.32,33.65,35.52
"2015-12-29 08:10:00",215678,0.188,313.2,-6.011,96,11.5354,0,868.0413,0,3.277,3.182,177,2.243,3.12,27.59154,2.379,51.44,59.32,33.65,35.52
"2015-12-29 08:20:00",215679,0.412,42.46,-5.975,96.6,9.608243,0,868.1573,0,3.18,3.184,177,2.235,3.109,22.06641,2.288,51.44,59.32,33.65,35.52
"2015-12-29 08:30:00",215680,0.158,351.5,-6.026,97.6,7.720418,0,868.3469,0,3.155,3.184,178,2.235,3.109,17.93298,2.311,51.44,59.32,33.65,35.52
"2015-12-29 08:40:00",215681,0.496,327.7,-6.131,97.4,8.727259,0,868.4924,0,3.158,3.185,177,2.235,3.118,19.86318,2.255,51.44,59.38,33.65,35.54
"2015-12-29 08:50:00",215682,0.429,304.6,-6.258,96.7,15.54309,0,868.4418,0,3.403,3.182,178,2.236,3.112,37.78858,2.394,51.44,59.32,33.65,35.52
"2015-12-29 09:00:00",215683,0.73,150.2,-5.976,95.4,27.81002,0,868.3616,0,3.424,3.18,177,2.216,3.118,68.16734,2.426,51.44,59.38,33.65,35.54
"2015-12-29 09:10:00",215684,0.533,137.3,-5.484,92.5,38.95999,0,868.4207,0,3.507,3.172,178,2.192,3.157,98.51955,2.512,51.44,59.32,33.65,35.52
"2015-12-29 09:20:00",215685,0.769,290.5,-4.748,84.9,50.79429,0,868.543,0,3.191,3.178,186,2.16,3.154,117.3058,2.326,51.44,59.32,33.65,35.52
"2015-12-29 09:30:00",215686,0.784,12.79,-5.109,88.9,40.09269,0,868.6019,0,2.97,3.181,180,2.15,3.144,95.95227,2.388,51.49,59.38,33.66,35.54
"2015-12-29 09:40:00",215687,0.502,345.7,-5.25,93.4,33.16279,0,868.6019,0,2.947,3.182,177,2.15,3.144,79.40342,2.366,51.44,59.32,33.65,35.52
"2015-12-29 09:50:00",215688,0.3,317.3,-5.352,93,37.92168,0,868.6251,0,3.069,3.18,177,2.151,3.151,92.71,2.446,51.44,59.32,33.65,35.52
"2015-12-29 10:00:00",215689,0.476,356,-5.11,90.8,38.7865,0,868.7563,0,2.974,3.181,177,2.154,3.185,93.80106,2.413,51.44,59.32,33.65,35.52
"2015-12-29 10:10:00",215690,0.203,355,-5.176,92,39.59028,0,868.7582,0,3.008,3.179,172,2.149,3.179,96.43436,2.435,51.44,59.32,33.65,35.52
"2015-12-29 10:20:00",215691,0.352,305.6,-5.051,91.1,33.79126,0,868.8738,0,2.893,3.18,190,2.199,3.172,81.00372,2.395,51.44,59.32,33.65,35.52
"2015-12-29 10:30:00",215692,0.402,317.2,-5.078,92,27.26496,0,869.0167,0,2.487,3.185,194,2.167,3.163,66.11202,2.42,51.44,59.32,33.65,35.52
"2015-12-29 10:40:00",215693,0.347,351.2,-5.128,93.5,39.09016,0,868.9641,0,2.614,3.183,194,2.148,3.136,95.29494,2.432,51.44,59.32,33.65,35.52
"2015-12-29 10:50:00",215694,0.444,40.24,-4.907,92.4,47.53862,0,868.7782,0,2.413,3.182,174,2.154,3.131,113.3908,2.381,51.44,59.38,33.65,35.54
"2015-12-29 11:00:00",215695,0.283,319.8,-4.644,89.8,49.57051,0,868.7607,0,2.639,3.181,179,2.141,3.115,112.5437,2.306,51.38,59.38,33.64,35.54
"2015-12-29 11:10:00",215696,0.327,315.6,-4.295,87.9,55.90009,0,868.7858,0,2.436,3.18,188,2.162,3.098,133.2598,2.357,51.49,59.32,33.66,35.52
"2015-12-29 11:20:00",215697,0.623,305.2,-4.343,85.6,59.22218,0,868.9017,0,2.485,3.179,186,2.187,3.097,140.3711,2.365,51.44,59.38,33.65,35.54
"2015-12-29 11:30:00",215698,0.367,352.9,-4.278,87.8,51.55939,0,868.7795,0,2.808,3.176,192,2.157,3.09,123.2288,2.395,51.38,59.38,33.64,35.54
"2015-12-29 11:40:00",215699,0.726,262.4,-4.208,83.6,78.33772,0,868.7648,0,2.385,3.18,193,2.155,3.087,164.8295,2.188,51.44,59.38,33.65,35.54
"2015-12-29 11:50:00",215700,0.667,247.6,-4.145,78.54,65.29256,0,868.7079,0,2.161,3.182,192,2.148,3.09,152.3993,2.352,51.38,59.38,33.64,35.54
"2015-12-29 12:00:00",215701,1.088,289.9,-4.074,77.72,67.59257,0,868.7479,0,2.138,3.183,197,2.148,3.075,156.7019,2.323,51.38,59.32,33.64,35.52
"2015-12-29 12:10:00",215702,0.907,215.5,-4.157,77.49,51.98007,0,868.75,0,2.214,3.183,178,2.148,3.084,124.2144,2.386,51.44,59.38,33.65,35.54
"2015-12-29 12:20:00",215703,0.856,283.4,-4.368,77.99,63.18521,0,868.7838,0,2.113,3.183,191,2.148,3.096,138.3087,2.234,51.38,59.32,33.64,35.52
"2015-12-29 12:30:00",215704,0.471,278.4,-3.918,76.9,79.42677,0,868.788,0,2.008,3.181,190,2.148,3.068,175.7964,2.261,51.38,59.32,33.64,35.52
"2015-12-29 12:40:00",215705,1.129,303.3,-4.173,77.59,60.47632,0,868.8364,0,1.866,3.186,190,2.148,3.07,125.4237,2.157,51.38,59.38,33.64,35.54
"2015-12-29 12:50:00",215706,0.843,324.3,-4.35,75.79,67.68693,0,868.6669,0,2.341,3.183,191,2.148,3.087,137.3004,2.064,51.44,59.32,33.65,35.52
"2015-12-29 13:00:00",215707,0.389,241.9,-4.144,75.67,62.57188,0,868.489,0,2.113,3.183,191,2.148,3.083,105.0441,1.783,51.38,59.32,33.64,35.52
"2015-12-29 13:10:00",215708,0.767,297.2,-4.166,73.31,49.1493,0,868.4785,0,1.965,3.185,192,2.148,3.081,122.0802,2.467,51.44,59.26,33.65,35.51
"2015-12-29 13:20:00",215709,0.717,288.3,-4.245,72.21,62.62664,0,868.4244,0,2.166,3.183,177,2.146,3.083,137.6713,2.194,51.44,59.32,33.65,35.52
"2015-12-29 13:30:00",215710,0.978,291.9,-4.245,72.36,59.70455,0,868.5279,0,2.318,3.182,178,2.142,3.083,125.6676,2.188,51.38,59.26,33.64,35.51
"2015-12-29 13:40:00",215711,1.044,278.9,-4.182,72.6,64.00809,0,868.6111,0,2.219,3.182,182,2.136,3.085,126.1082,1.989,51.44,59.32,33.65,35.52
"2015-12-29 13:50:00",215712,0.991,310.7,-4.231,71.46,52.44984,0,868.8727,0,2.639,3.178,247,2.137,3.087,118.4781,2.28,51.38,59.32,33.64,35.52
"2015-12-29 14:00:00",215713,1.093,277.2,-4.36,72.15,36.87794,0,868.9896,0,2.368,3.183,186,2.15,3.093,82.0738,2.241,51.38,59.32,33.64,35.52
"2015-12-29 14:10:00",215714,1.071,319.1,-4.588,70.3,44.19819,0,869.0836,0,2.172,3.185,192,2.175,3.092,98.2521,2.237,51.44,59.32,33.65,35.52
"2015-12-29 14:20:00",215715,0.535,242.3,-4.386,71.52,40.11338,0,869.2014,0,2.318,3.183,189,2.162,3.092,94.488,2.366,51.38,59.32,33.64,35.52
"2015-12-29 14:30:00",215716,0.314,247.7,-4.441,77.43,25.44524,0,869.1715,0,1.897,3.188,195,2.186,3.111,61.87342,2.437,51.38,59.32,33.64,35.52
"2015-12-29 14:40:00",215717,0.712,186.5,-4.522,77.6,45.61851,0,869.
"2015-12-29 14:40:00",215717,0.712,186.5,-4.522,77.6,45.61851,0,869.0445,0,2.339,3.182,232,2.188,3.109,105.8777,2.326,51.38,59.26,33.64,35.51
"2015-12-29 14:50:00",215718,0.628,174,-4.13,76.43,39.65435,0,869.266,0,1.615,3.187,201,2.166,3.097,88.84574,2.246,51.38,59.32,33.64,35.52
"2015-12-29 15:00:00",215719,0.804,206.9,-4.329,75.04,42.85866,0,869.1038,0,1.519,3.19,199,2.17,3.098,102.4587,2.391,51.44,59.32,33.65,35.52
"2015-12-29 15:10:00",215720,0.783,252.7,-4.495,76.28,34.05182,0,869.1249,0,1.427,3.194,194,2.176,3.101,78.31868,2.301,51.38,59.32,33.64,35.52
"2015-12-29 15:20:00",215721,0.835,233.2,-4.898,75.78,24.76532,0,869.2576,0,1.553,3.193,197,2.189,3.124,58.85273,2.368,51.38,59.32,33.64,35.52
"2015-12-29 15:30:00",215722,0.616,156.7,-4.902,75.87,17.43676,0,869.2682,0,1.728,3.192,179,2.204,3.129,40.9524,2.352,51.38,59.32,33.64,35.52
"2015-12-29 15:40:00",215723,0.506,260.2,-4.888,75.96,18.47865,0,869.2977,0,1.578,3.193,192,2.217,3.132,47.26415,2.553,51.38,59.32,33.64,35.52
"2015-12-29 15:50:00",215724,0.849,185.1,-4.944,76.08,14.97557,0,869.3798,0,1.728,3.192,192,2.206,3.104,37.2298,2.487,51.38,59.32,33.64,35.5
"2015-12-29 15:50:00",215724,0.849,185.1,-4.944,76.08,14.97557,0,869.3798,0,1.728,3.192,192,2.206,3.104,37.2298,2.487,51.38,59.32,33.64,35.52
"2015-12-29 16:00:00",215725,0.761,179.7,-5.084,77.22,10.89454,0,869.5211,0,1.73,3.193,194,2.195,3.089,28.88996,2.653,51.38,59.32,33.64,35.52
"2015-12-29 16:10:00",215726,0.727,198.8,-5.272,76.42,6.046842,0,869.5211,0,2.056,3.191,195,2.165,3.088,15.86844,2.623,51.38,59.32,33.64,35.52
"2015-12-29 16:20:00",215727,0.769,218.8,-5.348,75.13,3.935558,0,869.6095,0,1.734,3.194,180,2.148,3.097,12.04728,3.081,51.38,59.32,33.64,35.52
"2015-12-29 16:30:00",215728,0.764,208.7,-5.389,75.28,2.10342,0,869.7781,0,1.736,3.195,182,2.142,3.08,7.346641,4.039,51.38,59.32,33.64,35.52
"2015-12-29 16:40:00",215729,1.083,173.9,-5.545,74.83,0.3302566,0,869.9277,0,1.688,3.196,192,2.11,3.032,4.037241,5.282,51.38,59.32,33.64,35.52
"2015-12-29 16:50:00",215730,1.107,181,-5.64,74.02,0,0,870.0183,0,1.739,3.196,190,2.089,3.031,1.713458,0,51.38,59.32,33.64,35.52
"2015-12-29 17:00:00",215731,0.81,187.8,-5.641,74.33,0,0,870.0
"2015-12-29 17:00:00",215731,0.81,187.8,-5.641,74.33,0,0,870.0267,0,1.713,3.196,194,2.101,3.018,0.6292789,0,51.38,59.32,33.64,35.52
"2015-12-29 17:10:00",215732,0.451,196.1,-5.646,75.15,0,0,870.1711,0,1.608,3.197,186,2.108,3.028,0.2274546,0,51.38,59.32,33.64,35.52
"2015-12-29 17:20:00",215733,0.6,197.8,-5.634,75.12,0,0,870.2802,0,1.723,3.196,186,2.125,3.044,0.2085133,0,51.38,59.32,33.64,35.52
"2015-12-29 17:30:00",215734,0.836,162.9,-5.715,75.65,0,0,870.3079,0,1.669,3.197,194,2.139,3.061,0.2085245,0,51.38,59.32,33.64,35.52
"2015-12-29 17:40:00",215735,1.02,168.1,-5.748,74.9,0,0,870.29,0,1.614,3.198,194,2.148,3.03,0.2274895,0,51.38,59.32,33.64,35.52
"2015-12-29 17:50:00",215736,0.74,163.6,-5.735,73.93,0,0,870.1329,0.5,1.705,3.196,189,2.158,3.026,0.2692057,0,51.38,59.32,33.64,35.52
"2015-12-29 18:00:00",215737,0.953,187.9,-5.584,71.83,0,0,870.1118,0,1.571,3.197,185,2.173,3.04,0.4171007,0,51.38,59.26,33.64,35.51
"2015-12-29 18:10:00",215738,0.761,171.8,-5.554,70.98,0,0,870.1169,0,1.614,3.196,177,2.186,3.061,0.2351051,0,51.33,59.26,33.62,35.51
"2015-12-29 18:20:00",215739,0.808,160.8,-5.537,70.57,0,0,870.119,0,1.59,3.197,176,2.191,3.067,0.2275256,0,51.38,59.26,33.64,35.51
"2015-12-29 18:30:00",215740,0.721,175.6,-5.675,74.35,0,0,870.1215,0,2.013,3.194,189,2.192,3.069,0.2275272,0,51.38,59.32,33.64,35.52
"2015-12-29 18:40:00",215741,0.799,188.6,-5.688,74.41,0,0,870.2164,0,1.886,3.194,194,2.194,3.079,0.2275277,0,51.38,59.26,33.64,35.51
"2015-12-29 18:50:00",215742,0.901,173.5,-5.614,73.73,0,0,870.1658,0,1.765,3.196,194,2.199,3.094,0.1896065,0,51.33,59.26,33.62,35.51
"2015-12-29 19:00:00",215743,0.714,209.8,-5.799,74.09,0,0,870.1995,0,2.013,3.194,190,2.221,3.1,0.02654491,0,51.38,59.26,33.64,35.51
"2015-12-29 19:10:00",215744,0.541,230.6,-5.665,71.98,0,0,870.2966,0,1.861,3.194,185,2.219,3.099,0.466432,0,51.38,59.26,33.64,35.51
"2015-12-29 19:20:00",215745,0.251,251.3,-5.521,70.71,0,0,870.3387,0,1.884,3.193,195,2.212,3.1,0.5081455,0,51.33,59.26,33.62,35.51
"2015-12-29 19:30:00",215746,0.315,202.2,-5.551,73.27,0,0,870.3871,0,2.059,3.192,195,2.215,3.1,0.3147468,0,51.38,59.26,33.64,35.51
"2015-12-29 19:40:00",215747,0.467,212.3,-5.572,72.96,0,0,870.6106,0,2.107,3.191,205,2.228,3.1,0.3526681,0,51.38,59.26,33.64,35.51
"2015-12-29 19:50:00",215748,0.346,294.1,-5.52,72.2,0,0,870.6232,0,2.132,3.191,197,2.199,3.098,0.3678366,0,51.33,59.26,33.62,35.51
"2015-12-29 20:00:00",215749,0.281,225.3,-5.419,72.05,0,0,870.5642,0,2.106,3.191,195,2.204,3.1,0.3602524,0,51.38,59.26,33.64,35.51
"2015-12-29 20:10:00",215750,0.358,217.3,-5.466,71.94,0,0,870.6022,0,2.084,3.192,197,2.207,3.1,0.1858144,0,51.38,59.26,33.64,35.51
"2015-12-29 20:20:00",215751,0.414,267.7,-5.575,73.65,0,0,870.6253,0,2.381,3.189,216,2.213,3.1,0.2275278,0,51.33,59.26,33.62,35.51
"2015-12-29 20:30:00",215752,0.503,255.7,-5.658,73.22,0,0,870.6253,0,2.483,3.189,217,2.203,3.103,0.1592695,0,51.33,59.26,33.62,35.51
"2015-12-29 20:40:00",215753,0.226,245.8,-5.855,74.89,0,0,870.6253,0,2.536,3.19,223,2.218,3.117,0.0379213,0,51.33,59.26,33.62,35.51
"2015-12-29 20:50:00",215754,0.4,178,-6.016,75.14,0,0,870.6275,0,2.31,3.191,217,2.241,3.137,0.1099718,0,51.38,59.26,33.64,35.51
"2015-12-29 21:00:00",215755,0.307,222.7,-6.056,74.98,0,0,870.7181,0,2.364,3.192,212,2.252,3.126,0.007584261,0,51.38,59.26,33.64,35.51
"2015-12-29 21:10:00",215756,0.274,137.5,-6.261,74.8,0,0,870.893,0,2.718,3.191,224,2.269,3.095,0,0,51.33,59.26,33.62,35.51
"2015-12-29 21:20:00",215757,0.157,134.6,-6.382,74.98,0,0,870.9014,0,2.122,3.196,199,2.276,3.089,0,0,51.33,59.26,33.62,35.51
"2015-12-29 21:30:00",215758,0.222,132.8,-6.358,74.14,0,0,870.8867,0,2.696,3.192,206,2.269,3.052,0.1630616,0,51.38,59.26,33.64,35.51
"2015-12-29 21:40:00",215759,0.139,139.6,-6.472,74.76,0,0,870.9036,0,2.543,3.192,218,2.226,3.043,0.05688196,0,51.33,59.26,33.62,35.51
"2015-12-29 21:50:00",215760,0.475,182.3,-5.981,72.11,0,0,870.9056,0,3.057,3.185,246,2.196,3.072,1.054212,0,51.33,59.26,33.62,35.51
"2015-12-29 22:00:00",215761,0.746,172.6,-5.954,71.99,0,0,870.8782,0,3.399,3.18,275,2.226,3.04,1.149015,0,51.38,59.26,33.64,35.51
"2015-12-29 22:10:00",215762,0.644,175.1,-5.71,70.61,0,0,870.8593,0,3.396,3.179,273,2.251,3.035,0.7811788,0,51.38,59.26,33.64,35.51
"2015-12-29 22:20:00",215763,0.87,175.6,-5.674,70.13,0,0,870.8277,0,3.594,3.177,286,2.241,3.025,0.2426963,0,51.33,59.26,33.62,35.51
"2015-12-29 22:30:00",215764,0.801,238.5,-5.598,69.47,0,0,870.8508,0,2.282,3.19,242,2.24,3.038,0.2389042,0,51.33,59.26,33.62,35.51
"2015-12-29 22:40:00",215765,1.179,168.1,-5.932,71.29,0,0,870.6823,0,2.955,3.185,249,2.264,2.992,0.08721899,0,51.33,59.26,33.62,35.51
"2015-12-29 22:50:00",215766,1.014,169.3,-5.86,70.74,0,0,870.6253,0,3.028,3.184,234,2.254,2.982,0.1554773,0,51.38,59.26,33.64,35.51
"2015-12-29 23:00:00",215767,0.651,163.9,-5.981,71.8,0,0,870.6253,0,2.514,3.191,221,2.234,2.974,0.06446622,0,51.38,59.26,33.64,35.51
"2015-12-29 23:10:00",215768,1.114,166.6,-5.917,71.68,0,0,870.6169,0,3.551,3.18,275,2.204,2.977,0.2313199,0,51.33,59.26,33.62,35.51
"2015-12-29 23:20:00",215769,0.708,168.9,-6.084,73.75,0,0,870.4874,0,2.707,3.188,210,2.21,2.972,0.03412927,0,51.38,59.2,33.64,35.5
"2015-12-29 23:30:00",215770,1.093,168.2,-5.681,71.47,0,0,870.3978,0,2.945,3.182,224,2.209,2.974,0.4133475,0,51.38,59.26,33.64,35.51
"2015-12-29 23:40:00",215771,0.779,166.9,-5.352,69.85,0,0,870.3964,0,2.574,3.186,204,2.209,2.982,0.4436875,0,51.38,59.26,33.64,35.51
"2015-12-29 23:50:00",215772,0.708,176.5,-5.304,69.73,0,0,870.4057,0,2.469,3.187,202,2.215,2.985,0.2464957,0,51.33,59.26,33.62,35.51
